Theta_e
346 353 361 362 361 359 358 359 362 363 363 363 362 361 361 360 360 359 356 354 352 349 346 343 340 339 338 337 337 337 337 336 336 336 338 342 347 351 352 352 352 351 353
348 353 360 360 360 359 358 358 361 362 362 363 362 361 361 361 360 358 355 352 349 345 343 340 338 337 336 335 335 336 336 336 336 335 334 337 342 349 350 351 352 353 350
347 353 356 360 360 359 358 358 359 361 361 362 362 362 361 360 358 356 354 350 346 343 342 339 336 335 336 335 335 335 335 336 337 340 339 329 338 348 349 348 351 352 351
349 351 352 359 359 359 358 357 356 358 359 361 361 361 360 359 357 353 352 348 345 342 339 337 337 337 336 335 335 335 335 335 338 339 333 335 335 348 349 348 348 351 351
351 347 353 359 359 359 358 357 356 356 357 358 359 359 358 357 355 353 351 349 344 341 339 339 338 338 337 336 335 336 336 337 339 337 331 334 334 344 347 348 349 350 351
348 346 355 357 358 358 358 356 355 355 355 356 357 357 356 354 353 351 349 348 346 342 342 341 340 340 339 340 340 340 340 340 341 337 341 334 335 345 345 346 348 351 349
345 346 354 356 358 358 358 357 356 355 353 354 355 354 354 353 352 349 348 348 347 347 344 343 344 344 344 344 342 343 342 344 341 339 341 338 336 343 342 345 346 350 349
344 349 355 355 356 357 357 356 355 354 353 353 353 353 352 351 350 349 348 348 348 348 347 346 346 346 346 346 346 346 345 343 339 337 340 340 342 344 341 343 344 350 350
345 355 355 353 355 356 355 354 353 352 352 351 351 351 350 350 349 349 348 348 348 348 348 347 348 348 347 347 347 347 344 343 337 333 335 338 345 344 342 343 343 348 352
341 355 356 354 349 350 352 355 354 352 351 351 350 350 350 349 349 349 346 347 349 348 348 348 348 349 348 348 347 346 343 343 337 334 334 341 346 343 342 342 343 345 352
337 345 353 353 350 345 344 350 354 353 353 352 351 350 348 344 343 342 345 345 349 349 349 348 349 349 349 349 348 347 344 339 336 337 340 348 348 344 342 341 342 343 350
334 339 343 352 348 345 342 346 350 348 349 348 346 346 346 341 339 340 342 346 348 349 349 349 349 349 348 343 343 346 342 339 336 338 342 348 346 342 341 342 341 343 347
335 336 342 352 351 348 345 347 350 346 345 345 344 343 345 340 338 339 337 340 342 346 342 345 345 345 342 341 340 343 341 341 338 336 342 346 344 339 338 340 342 343 347
334 335 342 352 354 353 350 347 350 349 347 345 344 345 343 341 338 337 336 339 337 339 340 339 339 340 341 342 341 343 343 341 337 338 341 344 342 341 340 339 341 342 346
338 335 340 355 356 360 362 359 352 350 349 348 348 346 344 343 339 340 340 338 340 339 341 338 339 339 340 341 342 342 340 341 341 338 338 346 344 344 343 343 341 341 344
348 348 346 355 359 361 360 362 363 363 352 353 350 350 348 343 345 341 340 342 338 341 340 339 338 338 340 342 342 343 344 341 342 340 339 340 344 344 344 344 344 342 343
345 360 351 357 363 361 359 362 359 356 355 352 355 359 351 348 344 346 343 338 343 342 346 342 340 340 343 342 341 344 341 344 343 341 340 337 340 344 345 344 344 344 343
345 345 352 340 360 363 362 360 358 356 354 353 353 357 357 351 352 349 346 345 342 347 341 342 341 341 340 338 338 341 343 342 339 341 341 337 339 337 342 344 345 344 345
348 348 349 350 349 355 359 355 355 355 354 355 356 352 357 355 351 352 348 347 351 343 344 342 339 340 337 338 337 342 341 340 340 339 339 336 340 340 338 340 342 343 343
346 350 351 354 355 361 353 360 354 351 351 354 354 352 355 353 353 350 351 347 352 346 343 342 341 341 339 337 334 339 337 340 340 337 337 339 337 338 338 337 336 335 341
344 347 350 350 355 354 354 347 343 342 346 351 352 354 356 353 351 352 348 350 350 345 344 346 344 341 338 337 337 334 335 337 337 338 338 337 336 337 337 336 336 336 335
345 346 349 349 351 353 352 350 349 351 347 349 352 353 356 353 353 351 349 348 348 346 347 346 342 336 335 339 333 329 324 328 333 334 335 334 333 335 337 336 335 335 336
339 344 343 347 349 353 350 349 349 353 355 353 352 353 354 353 353 352 349 350 348 346 344 344 343 337 335 338 336 330 321 319 325 332 333 333 333 334 333 335 334 335 336
337 338 340 344 345 347 350 343 345 343 342 348 352 351 352 354 352 350 349 349 348 346 345 342 342 341 338 333 336 336 334 330 321 320 329 331 333 331 330 332 332 332 334
335 334 336 342 345 345 348 346 342 347 347 356 352 354 351 352 352 349 349 350 348 347 348 345 344 340 339 335 333 332 330 331 330 324 319 323 329 331 332 332 331 332 333
329 331 333 334 342 344 348 347 348 348 348 347 349 349 349 349 346 347 347 348 349 348 347 345 344 342 340 337 337 333 330 326 325 325 322 322 323 326 330 331 331 332 333
Wind_Speed
15 20 21 18 16 15 14 12 11 10 10 11 11 11 11 11 10 10 10 10 9 8 8 7 6 6 5 5 5 5 6 6 5 5 4 2 2 5 5 3 2 5 9
20 20 21 19 17 16 14 12 11 10 9 10 11 12 12 11 12 10 9 8 7 7 6 6 5 4 4 3 4 4 3 3 4 5 6 5 1 4 6 6 5 7 8
19 19 19 20 18 17 15 14 12 10 9 10 11 11 12 12 12 11 9 8 7 7 6 5 5 4 3 3 2 2 1 2 3 6 9 5 6 7 9 8 7 10 9
17 17 17 19 19 17 16 15 13 12 11 10 11 12 12 11 12 11 10 10 9 8 7 7 6 5 3 2 1 0 1 3 5 8 6 8 8 9 11 8 6 9 9
16 16 16 20 19 18 17 16 15 13 12 12 11 11 12 12 12 12 12 11 11 10 9 8 7 6 5 4 3 2 2 5 7 9 8 3 6 10 10 8 7 11 12
17 15 18 20 18 17 17 17 16 15 14 13 13 12 12 12 12 12 12 12 11 11 10 9 8 6 5 5 4 3 4 7 8 9 8 7 9 11 10 8 6 10 15
17 15 17 20 17 16 16 17 17 16 14 14 14 13 13 13 13 13 13 13 13 12 11 10 8 7 7 6 5 5 5 8 8 9 9 7 10 13 11 8 3 7 14
16 16 15 20 18 16 15 15 16 16 15 14 14 14 14 14 14 14 14 13 13 12 11 10 10 9 8 7 6 6 6 8 9 8 8 4 14 13 13 8 2 5 16
17 16 14 14 15 15 14 14 15 16 16 15 14 14 15 15 15 14 14 14 14 13 12 12 11 11 9 8 7 6 8 9 6 7 10 7 12 11 11 9 3 1 16
16 18 15 13 14 12 11 14 14 14 15 15 15 15 15 15 15 15 15 14 14 13 12 13 13 11 10 9 8 9 10 11 8 9 8 6 14 13 11 9 5 2 13
16 16 16 14 13 12 12 13 13 15 14 15 14 15 13 9 11 14 14 15 15 14 14 14 13 12 11 10 11 12 13 6 9 7 3 15 13 11 9 8 6 3 8
16 18 15 15 15 14 11 11 13 12 10 10 11 11 10 10 9 12 14 18 17 16 15 14 13 12 11 7 7 15 6 10 9 6 6 15 13 11 8 7 7 7 7
14 14 18 15 17 16 11 9 7 7 8 8 12 11 11 9 8 8 7 9 8 14 8 10 9 7 10 8 10 9 10 11 7 3 11 16 14 12 9 8 8 9 7
9 9 15 13 15 13 9 9 10 9 9 8 11 14 10 8 8 8 7 8 9 8 10 8 8 9 11 11 14 9 12 9 2 2 7 14 13 13 12 10 11 11 8
6 23 18 17 9 7 5 3 5 7 8 10 11 14 12 10 9 8 6 8 9 10 10 10 9 10 12 13 13 11 6 2 1 1 4 14 14 13 13 13 12 12 12
4 4 7 15 12 9 6 4 3 4 5 8 9 11 16 11 8 9 8 6 8 10 10 11 10 9 11 12 12 7 5 4 4 4 2 7 13 14 14 14 14 15 15
3 2 2 11 13 11 9 7 7 5 5 6 5 9 17 14 12 10 8 9 6 6 7 8 11 9 5 5 6 4 5 3 3 4 4 6 6 13 14 14 14 15 16
5 5 5 5 13 11 9 8 7 7 7 6 7 5 13 15 12 10 8 7 8 5 6 4 4 5 5 5 3 3 3 1 4 5 4 4 6 7 9 13 14 14 15
9 7 5 5 6 10 9 7 7 7 5 5 5 6 8 13 15 8 7 6 7 7 5 4 4 4 3 3 4 4 2 3 5 7 8 7 7 7 4 5 16 14 16
10 10 6 4 5 2 4 4 4 4 5 5 4 5 7 9 13 11 6 7 5 4 5 4 4 4 3 4 3 3 3 4 5 5 5 2 2 3 6 8 7 6 14
11 12 10 8 6 3 4 3 4 5 5 4 4 6 6 8 10 10 9 6 7 6 5 5 4 5 3 2 2 2 4 5 7 4 4 3 4 5 7 5 4 7 5
9 9 9 8 7 6 4 4 3 3 5 6 5 6 6 9 8 8 8 7 8 4 6 5 5 3 3 2 3 2 2 3 4 5 4 4 5 3 4 4 8 8 5
10 10 10 9 8 8 8 3 4 3 3 2 4 4 5 8 8 8 10 7 8 6 5 5 4 5 4 3 5 3 1 2 1 1 4 4 4 2 2 2 2 5 6
8 9 9 9 9 9 9 7 8 5 5 5 5 6 7 7 9 10 8 8 9 7 5 7 6 5 4 3 2 4 4 1 1 2 2 4 5 4 4 3 1 3 6
9 10 10 10 13 14 12 11 8 8 6 4 4 9 8 7 7 9 8 8 8 6 6 8 6 6 4 3 4 1 2 4 4 3 3 2 1 4 3 5 5 5 8
13 12 12 14 14 16 12 14 11 11 8 6 7 9 7 6 5 8 8 6 6 5 6 5 5 6 3 2 2 3 4 1 2 2 4 2 2 2 3 4 6 6 5
Wind_Direction
128 143 151 152 150 150 145 149 152 154 146 141 139 133 128 123 121 121 120 121 122 122 122 123 122 119 112 103 88 63 39 28 24 4 3 19 72 87 56 41 68 105 127
132 143 151 153 155 153 151 149 148 151 147 141 141 140 137 134 133 134 136 138 139 141 141 141 136 132 127 110 93 84 65 39 8 331 300 268 174 118 78 43 45 113 135
132 143 155 155 156 156 154 153 149 146 148 143 144 146 145 145 145 151 151 156 160 162 161 157 157 168 147 129 107 78 46 1 326 299 293 272 172 139 95 63 65 123 124
138 144 154 160 158 159 156 156 154 153 156 156 155 155 155 156 157 162 166 169 175 179 180 175 179 182 174 176 167 159 300 305 296 294 281 259 159 114 93 83 83 129 135
139 150 156 158 158 162 161 160 158 158 162 167 169 167 164 167 169 172 174 179 182 188 188 185 192 193 194 197 202 218 255 275 288 290 264 39 46 90 79 59 102 125 123
143 153 145 156 163 164 164 161 159 168 171 172 172 175 175 179 178 178 183 182 187 190 191 193 195 202 202 211 223 239 271 286 298 275 265 119 94 110 94 78 41 138 130
146 153 147 156 164 166 167 167 166 171 176 179 174 176 181 187 187 181 188 187 190 194 194 197 196 203 212 218 226 247 267 285 290 298 292 144 124 128 119 92 38 171 157
142 131 148 160 165 170 173 173 174 177 177 183 180 183 184 192 192 190 192 193 195 197 196 198 200 207 213 221 232 249 262 277 295 291 290 97 139 137 121 111 72 178 171
142 129 143 162 166 171 176 182 185 182 180 185 184 189 192 195 196 196 197 199 202 200 199 203 207 211 213 223 234 249 262 273 281 286 289 108 128 128 125 126 120 242 181
151 136 141 155 171 177 182 189 194 191 185 190 189 194 196 199 200 201 201 203 206 205 205 209 211 213 217 222 230 236 243 252 254 260 262 143 139 139 143 139 131 306 186
158 151 149 162 169 177 184 189 195 198 195 195 196 199 197 202 203 209 208 209 208 207 211 215 216 216 220 226 230 235 239 241 243 231 114 138 143 146 154 153 152 204 191
162 164 165 158 163 176 190 181 190 194 200 201 200 201 205 210 208 204 206 211 203 206 214 218 220 221 222 230 221 230 229 236 243 240 134 148 150 157 170 170 178 204 209
180 179 167 157 162 173 196 166 177 194 196 203 204 200 199 213 219 207 207 194 195 205 208 213 219 223 222 222 243 193 211 232 239 230 152 160 158 161 168 192 205 211 221
192 202 158 153 160 177 175 166 175 189 190 196 201 200 201 202 211 223 206 192 190 195 201 212 208 207 222 228 244 196 212 222 248 62 160 162 162 163 170 195 214 217 216
223 125 207 181 150 154 182 171 183 191 189 192 195 200 195 201 211 206 217 207 184 197 188 205 214 208 211 224 235 244 235 149 77 273 158 174 175 172 182 192 208 217 212
347 358 136 150 147 150 173 204 247 209 208 194 194 190 197 199 192 216 202 212 218 193 204 194 211 219 204 215 226 232 203 189 204 232 163 173 179 185 192 196 203 212 210
227 283 17 120 145 158 172 187 217 235 222 231 216 182 190 193 204 196 209 208 206 233 200 197 201 218 212 210 237 226 195 167 209 228 221 178 185 198 198 199 209 214 211
187 190 202 204 162 171 177 191 206 211 217 226 204 202 178 189 193 207 202 202 208 222 220 217 209 195 198 209 230 247 118 220 279 267 231 156 183 201 202 209 211 223 216
171 167 176 194 166 173 185 188 207 221 232 223 208 205 186 181 193 192 209 210 188 211 209 206 202 209 207 220 205 171 177 207 241 244 237 222 184 175 159 197 238 218 222
159 153 172 222 197 186 210 195 212 221 217 218 218 204 195 185 176 190 214 204 213 203 206 199 187 196 208 207 213 152 229 220 226 245 235 192 255 275 184 203 218 225 220
168 147 169 184 220 227 211 200 224 219 220 200 198 219 189 168 178 176 203 204 211 199 202 200 180 192 223 191 91 293 247 225 235 222 250 221 226 246 259 223 182 218 216
156 159 166 186 199 225 202 219 225 220 218 188 183 193 161 161 176 184 192 222 193 202 192 207 174 161 195 198 152 229 257 236 219 228 224 231 219 239 264 239 204 165 250
167 171 182 189 198 205 212 189 227 237 254 167 166 143 154 164 181 190 192 231 169 197 187 174 157 189 217 148 194 196 235 233 24 224 200 193 223 220 236 347 348 229 158
164 166 183 199 202 205 198 201 207 197 205 211 168 155 162 177 190 186 177 229 168 194 182 176 179 197 191 182 165 216 227 263 240 308 214 199 174 184 200 215 79 309 175
201 191 190 198 196 203 198 199 210 211 205 178 161 153 156 178 160 169 195 216 172 195 164 167 166 174 179 162 216 134 247 239 206 202 272 190 214 214 195 153 177 202 183
231 206 197 205 199 200 190 198 202 205 208 179 168 146 152 144 164 179 199 177 174 196 149 152 151 149 163 176 192 218 221 225 196 194 246 235 186 177 168 181 170 228 193